This is the latest recevied weather packets stored in our database for station/object W4MLN-1. If no packets are shown the sender has not sent any weather packets the latest 1 day(s).
| Time | Temp. | Humidity | Pressure | Rain* | Wind** | Luminosity | Snow |
|---|---|---|---|---|---|---|---|
| 1778070945 | 13.89° C | 87% | 1012.6 hPa | 0 mm | - | 164 W/m² | - |
| 1778070344 | 13.89° C | 86% | 1012.6 hPa | 0 mm | - | 42 W/m² | - |
| 1778070045 | 13.89° C | 85% | 1012.5 hPa | 0 mm | - | 49 W/m² | - |
| 1778068530 | 13.33° C | 85% | 1012.6 hPa | 0 mm | - | 47 W/m² | - |
| 1778067930 | 13.89° C | 84% | 1012.7 hPa | 0 mm | - | 19 W/m² | - |
| 1778067330 | 15° C | 79% | 1012.5 hPa | 0 mm | - | 28 W/m² | - |
| 1778067031 | 15.56° C | 76% | 1012.3 hPa | 0 mm | - | 35 W/m² | - |
| 1778066430 | 15.56° C | 75% | 1012.3 hPa | 0 mm | - | 19 W/m² | - |
| 1778065516 | 15.56° C | 74% | 1012.1 hPa | 0 mm | - | 12 W/m² | - |
| 1778064916 | 15.56° C | 73% | 1011.8 hPa | 0 mm | - | 12 W/m² | - |
| 1778063101 | 15° C | 73% | 1011.8 hPa | 0 mm | - | 0 W/m² | - |
| 1778062501 | 15° C | 75% | 1011.7 hPa | 0 mm | - | 0 W/m² | - |
| 1778061602 | 15° C | 73% | 1011.7 hPa | 0 mm | - | 0 W/m² | - |
| 1778060996 | 15° C | 73% | 1011.8 hPa | 0 mm | - | 0 W/m² | - |
| 1778060696 | 15° C | 73% | 1011.7 hPa | 0 mm | - | 0 W/m² | - |
| 1778060395 | 15° C | 73% | 1011.7 hPa | 0 mm | - | 0 W/m² | - |
| 1778060090 | 15° C | 74% | 1011.8 hPa | 0 mm | - | 0 W/m² | - |
| 1778059790 | 15° C | 74% | 1011.9 hPa | 0 mm | - | 0 W/m² | - |
| 1778059490 | 15° C | 74% | 1011.8 hPa | 0 mm | - | 0 W/m² | - |
| 1778059190 | 15° C | 73% | 1011.8 hPa | 0 mm | - | 0 W/m² | - |
| 1778058887 | 14.44° C | 73% | 1012 hPa | 0 mm | - | 0 W/m² | - |
| 1778058287 | 14.44° C | 75% | 1012.1 hPa | 0 mm | - | 0 W/m² | - |
| 1778057987 | 14.44° C | 75% | 1011.8 hPa | 0 mm | - | 0 W/m² | - |
| 1778057688 | 14.44° C | 74% | 1011.8 hPa | 0 mm | - | 0 W/m² | - |
| 1778057387 | 15° C | 75% | 1012 hPa | 0 mm | - | 0 W/m² | - |
* Rain latest hour (hover to see other rain measurements)
** Current wind speed in m/s (hover to see current wind gust speed)